Flag for U.S.A. Weather past 2 weeks in Corpus Christi, Texas, U.S.A.

Now
86 °F

Partly sunny.


Feels Like: 92 °F
Forecast: 76 / 96 °F
Wind: 10 mph from Southeast

Location: Corpus Christi International Airport

Current Time: Jul 30, 2015 at 10:07:11 PM

Latest Report: Jul 30, 2015 at 8:51 PM


Visibility: 10 mi

Pressure: 29.98 "Hg

Humidity: 63%

Dew point: 72 °F

Location of Corpus ChristiLocation

Historic Weather in Corpus Christi — Graph

°F

Corpus Christi temperature yesterday

Maximum temperature yesterday: 96 °F (at 1:51 PM)
Minimum temperature yesterday: 79 °F (at 6:51 AM)
Average temperature yesterday: 87 °F

Past Weeks' High & Low Weather Summary

 TemperatureHumidityPressure
High98 °F (Jul 30, 3:51 PM)97% (Jul 30, 6:51 AM)30.07 "Hg (Jul 30, 6:51 AM)
Low70 °F (Jul 30, 4:51 AM)26% (Jul 30, 4:51 PM)29.82 "Hg (Jul 21, 6:51 PM)
Average86 °F72%29.94 "Hg
* Reported Jul 15 8:51 PM — Jul 30 8:51 PM, Corpus Christi, Weather by CustomWeather, © 2015

Note: Actual official high and low records may vary slightly from our data, if they occured in-between our weather recording intervals... More about our weather records

Advertising

Corpus Christi weather history for previous 24 hours

 ConditionsComfort  
Time TempWeatherWind HumidityBarometerVisibility
8:51 PM
Thu, Jul 30
86 °FPartly sunny.10 mph63%29.98 "Hg10 mi
7:51 PM90 °FOvercast.13 mph52%29.98 "Hg10 mi
6:51 PM93 °FPartly sunny.15 mph44%29.96 "Hg10 mi
5:51 PM97 °FPartly sunny.14 mph34%29.97 "Hg10 mi
4:51 PM98 °FScattered clouds.9 mph26%29.99 "Hg10 mi
3:51 PM98 °FScattered clouds.9 mph28%30.01 "Hg10 mi
2:51 PM97 °FScattered clouds.12 mph39%30.03 "Hg10 mi
1:51 PM96 °FPartly sunny.10 mph43%30.04 "Hg10 mi
12:51 PM95 °FPartly sunny.7 mph40%30.06 "Hg10 mi
11:51 AM92 °FPartly sunny.3 mph51%30.06 "Hg10 mi
10:51 AM89 °FPartly sunny.8 mph55%30.07 "Hg10 mi
9:51 AM85 °FBroken clouds.8 mph72%30.07 "Hg10 mi
8:51 AM82 °FPartly sunny.No wind82%30.06 "Hg10 mi
7:51 AM76 °FFog.No wind85%30.04 "Hg1 mi
6:51 AM72 °FFog.No wind97%30.03 "Hg0 mi
5:51 AM71 °FFog.No wind96%30.01 "Hg3 mi
4:51 AM70 °FFog.3 mph93%30.00 "Hg3 mi
3:51 AM74 °FFog.No wind94%30.01 "Hg3 mi
2:51 AM74 °FFog.3 mph94%30.01 "Hg6 mi
1:51 AM76 °FPassing clouds.5 mph91%30.03 "Hg8 mi
12:51 AM78 °FPassing clouds.5 mph84%30.04 "Hg10 mi
11:51 PM
Wed, Jul 29
80 °FPassing clouds.6 mph85%30.03 "Hg10 mi
10:51 PM82 °FPassing clouds.9 mph79%30.01 "Hg10 mi
Weather by CustomWeather, © 2015

See weather overviewHow to use our weather pages